Home > Time Zones > World Clock > Weather > Egypt > Cairo > Past weeks

Flag for Egypt Weather past 2 weeks in Cairo, Egypt

Now
90 °F

Sunny.


Feels Like: 87 °F
Forecast: 71 / 95 °F
Wind: 10 mph from Northwest

Location: Cairo Airport

Current Time: Jul 5, 2015 at 5:54:51 PM

Latest Report: Jul 5, 2015 at 5:30 PM


Visibility: 10 mi

Pressure: 29.86 "Hg

Humidity: 29%

Dew point: 54 °F

Location of CairoLocation

Historic Weather in Cairo — Graph

°F

Cairo temperature yesterday

Maximum temperature yesterday: 91 °F (at 2:30 PM)
Minimum temperature yesterday: 72 °F (at 3:00 AM)
Average temperature yesterday: 82 °F

Past Weeks' High & Low Weather Summary

 TemperatureHumidityPressure
High102 °F (Jun 27, 2:30 PM)89% (Jul 5, 3:00 AM)30.01 "Hg (Jul 5, 3:00 AM)
Low70 °F (Jun 24, 5:30 AM)11% (Jun 27, 2:30 PM)29.59 "Hg (Jun 27, 2:00 PM)
Average80 °F53%29.88 "Hg
* Reported Jun 20 4:00 PM — Jul 5 4:30 PM, Cairo, Weather by CustomWeather, © 2015

Note: Actual official high and low records may vary slightly from our data, if they occured in-between our weather recording intervals... More about our weather records

Advertising

Cairo weather history for previous 24 hours

 ConditionsComfort  
Time TempWeatherWind HumidityBarometerVisibility
4:30 PM
Sun, Jul 5
91 °FSunny.N/A34%29.86 "Hg10 mi
4:00 PM91 °FSunny.8 mph34%29.86 "Hg10 mi
3:30 PM91 °FSunny.9 mph36%29.86 "Hg10 mi
3:00 PM91 °FSunny.9 mph36%29.86 "Hg10 mi
2:30 PM91 °FSunny.9 mph38%29.86 "Hg10 mi
2:00 PM90 °FSunny.8 mph38%29.86 "Hg10 mi
1:30 PM90 °FSunny.5 mph33%29.89 "Hg10 mi
1:00 PM90 °FSunny.6 mph38%29.89 "Hg10 mi
12:30 PM88 °FSunny.5 mph40%29.89 "Hg10 mi
12:00 PM88 °FSunny.6 mph40%29.89 "Hg10 mi
11:30 AM86 °FSunny.7 mph46%29.89 "Hg10 mi
11:00 AM84 °FSunny.5 mph48%29.92 "Hg10 mi
10:30 AM84 °FSunny.6 mph48%29.92 "Hg10 mi
10:00 AM82 °FSunny.3 mph58%29.92 "Hg10 mi
9:30 AM81 °FClear.6 mph62%29.92 "Hg4 mi
9:00 AM79 °FClear.No wind70%29.92 "Hg4 mi
8:30 AM77 °FScattered clouds.No wind74%29.92 "Hg4 mi
8:00 AM75 °FScattered clouds.3 mph78%29.92 "Hg4 mi
7:30 AM73 °FFog.5 mph83%29.92 "Hg2 mi
7:00 AM73 °FFog.5 mph83%29.92 "Hg2 mi
6:30 AM73 °FFog.5 mph83%29.92 "Hg2 mi
5:30 AM73 °FFog.5 mph83%29.92 "Hg2 mi
5:00 AM73 °FFog.5 mph89%29.89 "Hg2 mi
4:30 AM73 °FClear.5 mph89%29.89 "Hg4 mi
4:00 AM75 °FClear.3 mph83%29.89 "Hg4 mi
3:30 AM75 °FClear.6 mph89%29.89 "Hg4 mi
3:00 AM75 °FClear.5 mph89%29.89 "Hg4 mi
2:30 AM77 °FClear.5 mph79%29.89 "Hg10 mi
2:00 AM77 °FClear.5 mph83%29.89 "Hg10 mi
1:30 AM77 °FClear.6 mph83%29.89 "Hg10 mi
1:00 AM77 °FClear.6 mph83%29.89 "Hg10 mi
12:30 AM77 °FClear.7 mph83%29.89 "Hg10 mi
12:00 AM77 °FClear.7 mph83%29.92 "Hg10 mi
11:30 PM
Sat, Jul 4
79 °FClear.9 mph79%29.92 "Hg10 mi
11:00 PM79 °FClear.9 mph79%29.92 "Hg10 mi
10:30 PM79 °FClear.10 mph74%29.92 "Hg10 mi
10:00 PM82 °FClear.8 mph66%29.89 "Hg10 mi
9:30 PM84 °FClear.8 mph51%29.89 "Hg10 mi
9:00 PM84 °FClear.8 mph48%29.89 "Hg10 mi
8:30 PM86 °FClear.8 mph43%29.89 "Hg10 mi
8:00 PM86 °FClear.8 mph43%29.86 "Hg10 mi
7:30 PM88 °FClear.9 mph40%29.86 "Hg10 mi
7:00 PM88 °FClear.9 mph40%29.86 "Hg10 mi
6:30 PM90 °FSunny.7 mph38%29.86 "Hg10 mi
6:00 PM90 °FSunny.3 mph31%29.86 "Hg10 mi
5:30 PM91 °FHot.30 mph32%29.86 "HgN/A
5:00 PM91 °FSunny.6 mph30%29.86 "Hg10 mi
Weather by CustomWeather, © 2015

See weather overviewHow to use our weather pages